SCP
0 0 0 0 0 0 0 0 0 0 0 0 0 0 0 0 0 0 0 0 0 0 0 0 0 0 0 0 0 0 0 0 0 0 0 0 0 0 0 0 0 0 0
0 0 0 0 0 0 0 0 0 0 0 0 0 0 0 0 0 0 0 0 0 0 0 0 0 0 0 0 0 0 0 0 0 0 0 0 0 0 0 0 0 0 0
0 0 0 0 0 0 0 0 0 0 0 0 0 0 0 0 0 0 0 0 0 0 0 0 0 0 0 0 0 0 0 0 0 0 0 0 0 0 0 0 0 0 0
0 0 0 0 0 0 0 0 0 0 0 0 0 0 0 0 0 0 0 0 0 0 0 0 0 0 0 0 0 0 0 0 0 0 0 0 0 0 0 0 0 0 0
0 0 0 0 0 0 0 0 0 0 0 0 0 0 0 0 0 0 0 0 0 0 0 0 0 0 0 0 0 0 0 0 0 0 0 0 0 0 0 0 0 0 0
0 0 0 0 0 0 0 0 0 0 0 0 0 0 0 0 0 0 0 0 0 0 0 0 0 0 0 0 0 0 0 0 0 0 0 0 0 0 0 0 0 0 0
0 0 0 0 0 0 0 0 0 0 0 0 0 0 0 0 0 0 0 0 0 0 0 0 0 0 0 0 0 0 0 0 0 0 0 0 0 0 0 0 0 0 0
0 0 0 0 0 0 0 0 0 0 0 0 0 0 0 0 0 0 0 0 0 0 0 0 0 0 0 0 0 0 0 0 0 0 0 0 0 0 0 0 0 0 0
0 0 0 0 0 0 0 0 0 0 0 0 0 0 0 0 0 0 0 0 0 0 0 0 0 0 0 0 0 0 0 0 0 0 0 0 0 0 0 0 0 0 0
0 0 0 0 0 0 0 0 0 0 0 0 0 0 0 0 0 0 0 0 0 0 0 0 0 0 0 0 0 0 0 0 0 0 0 0 0 0 0 0 0 0 0
0 0 0 0 0 0 0 0 0 0 0 0 0 0 0 0 0 0 0 0 0 0 0 0 0 0 0 0 0 0 0 0 0 0 0 0 0 0 0 0 0 0 0
0 0 0 0 0 0 0 0 0 0 0 0 0 0 0 0 0 0 0 0 0 0 0 0 0 0 0 0 0 0 0 0 0 0 0 0 0 0 0 0 0 0 0
0 0 0 0 0 0 0 0 0 0 0 0 0 0 0 0 0 0 0 0 0 0 0 0 0 0 0 0 0 0 0 0 0 0 0 0 0 0 0 0 0 0 0
0 0 0 0 0 0 0 0 0 0 0 0 0 0 0 0 0 0 0 0 0 0 0 0 0 0 0 0 0 0 0 0 0 0 0 0 0 0 0 0 0 0 0
0 0 0 0 0 0 0 0 0 0 0 0 0 0 0 0 0 0 0 0 0 0 0 0 0 0 0 0 0 0 0 0 0 0 0 0 0 0 0 0 0 0 0
0 0 0 0 0 0 0 0 0 0 0 0 0 0 0 0 0 0 0 0 0 0 0 0 0 0 0 0 0 0 0 0 0 0 0 0 0 0 0 0 0 0 0
0 0 0 0 0 0 0 0 0 0 0 0 0 0 0 0 0 0 0 0 0 0 0 0 0 0 0 0 0 0 0 0 0 0 0 0 0 0 0 0 0 0 0
0 0 0 0 0 0 0 0 0 0 0 0 0 0 0 0 0 0 0 0 0 0 0 0 0 0 0 0 0 0 0 0 0 0 0 0 0 0 0 0 0 0 0
0 0 0 0 0 0 0 0 0 0 0 0 0 0 0 0 0 0 0 0 0 0 0 0 0 0 0 0 0 0 0 0 0 0 0 0 0 0 0 0 0 0 0
0 0 0 0 0 0 0 0 0 0 0 0 0 0 0 0 0 0 0 0 0 0 0 0 0 0 0 0 0 0 0 0 0 0 0 0 0 0 0 0 0 0 0
0 0 0 0 0 0 0 0 0 0 0 0 0 0 0 0 0 0 0 0 0 0 0 0 0 0 0 0 0 0 0 0 0 0 0 0 0 0 0 0 0 0 0
0 0 0 0 0 0 0 0 0 0 0 0 0 0 0 0 0 0 0 0 0 0 0 0 0 0 0 0 0 0 0 0 0 0 0 0 0 0 0 0 0 0 0
0 0 0 0 0 0 0 0 0 0 0 0 0 0 0 0 0 0 0 0 0 0 0 0 0 0 0 0 0 0 0 0 0 0 0 0 0 0 0 0 0 0 0
0 0 0 0 0 0 0 0 0 0 0 0 0 0 0 0 0 0 0 0 0 0 0 0 0 0 0 0 0 0 0 0 0 0 0 0 0 0 0 0 0 0 0
0 0 0 0 0 0 0 0 0 0 0 0 0 0 0 0 0 0 0 0 0 0 0 0 0 0 0 0 0 0 0 0 0 0 0 0 0 0 0 0 0 0 0
0 0 0 0 0 0 0 0 0 0 0 0 0 0 0 0 0 0 0 0 0 0 0 0 0 0 0 0 0 0 0 0 0 0 0 0 0 0 0 0 0 0 0
Wind_Speed
12 11 11 11 9 10 10 11 11 11 13 13 13 12 11 10 9 9 9 9 10 8 7 8 7 6 5 4 3 3 2 3 3 2 2 2 3 4 6 5 6 6 8
12 11 11 11 11 12 11 11 11 12 12 12 12 12 11 10 9 10 11 10 10 10 9 8 8 6 6 4 3 4 3 3 3 3 2 2 4 4 5 6 6 7 6
12 12 12 13 13 13 13 12 12 12 12 11 12 13 12 11 10 9 10 10 9 9 10 9 9 8 7 4 4 4 3 3 3 3 3 3 3 4 5 6 6 5 7
12 14 14 15 14 14 13 13 13 13 13 13 12 11 11 11 10 10 10 9 8 7 8 8 8 8 8 7 6 5 4 4 3 4 4 4 4 4 4 5 7 4 7
14 15 15 13 13 12 13 13 13 12 12 12 11 10 10 9 10 11 10 10 9 8 7 7 7 7 9 8 6 6 6 4 4 4 4 3 4 3 3 4 7 8 8
15 14 12 13 13 14 14 14 13 13 12 12 12 12 12 9 16 19 13 10 9 9 9 7 7 7 9 13 13 11 10 7 6 4 4 5 6 4 3 4 6 7 6
14 12 13 14 14 14 14 14 15 14 13 13 12 12 12 13 20 20 18 10 9 9 8 8 7 7 8 6 10 13 12 14 13 7 7 7 5 4 4 6 6 7 8
12 12 13 13 14 13 14 15 14 12 13 13 12 12 10 12 20 20 18 9 7 7 8 8 8 8 9 9 7 7 8 8 10 7 7 7 6 5 5 6 6 6 7
13 12 12 13 13 14 15 14 11 11 10 10 11 11 11 11 19 19 18 7 6 7 7 7 8 8 13 15 9 8 9 9 13 16 16 14 15 14 9 4 2 3 6
12 10 10 11 12 13 13 11 8 9 9 9 9 9 9 9 16 19 18 7 7 6 6 7 10 11 14 16 10 9 10 10 7 7 9 11 8 8 12 6 3 4 4
8 8 9 9 9 9 9 8 9 8 9 8 8 7 7 8 14 19 20 9 9 8 7 7 8 16 17 18 16 10 15 10 5 6 6 5 5 4 5 5 5 5 5
9 9 9 9 8 8 10 9 9 10 10 9 7 7 5 6 10 15 22 20 14 9 8 7 8 15 17 18 15 15 18 13 4 4 5 6 6 5 5 5 6 6 7
9 9 9 9 9 9 11 11 10 10 9 8 8 9 7 6 9 18 21 22 22 12 8 12 13 16 15 13 16 18 11 6 5 6 7 7 5 4 4 3 5 5 6
9 8 8 9 8 8 8 9 9 9 9 9 9 9 7 6 7 8 9 10 13 13 9 8 13 16 13 10 7 9 5 5 6 7 6 4 3 3 4 4 3 3 3
8 7 7 6 7 7 6 6 7 7 9 9 8 7 8 8 11 15 10 8 7 7 4 2 2 3 5 5 4 4 4 4 6 6 5 4 4 4 5 4 4 3 3
6 5 5 4 4 5 5 3 5 5 8 10 9 8 5 8 10 14 16 16 16 15 8 5 5 6 6 6 6 5 5 5 5 5 5 5 5 5 5 4 4 4 5
5 5 4 4 5 5 5 6 4 3 5 5 6 8 8 8 9 10 11 12 12 12 8 5 5 5 5 4 4 4 4 4 4 4 5 5 5 5 5 5 5 4 5
5 5 4 4 4 4 4 4 4 5 4 1 0 2 5 6 5 5 6 5 3 3 3 4 4 3 3 3 3 3 3 3 3 4 4 4 4 4 5 5 5 5 5
5 4 3 3 3 3 3 3 3 3 3 2 1 1 2 2 3 2 2 2 2 2 2 2 1 2 2 2 2 3 3 3 3 3 4 4 4 4 5 5 5 6 5
4 6 5 4 4 3 3 3 3 3 3 3 2 1 1 2 1 1 1 1 2 2 1 1 1 1 1 1 1 2 2 3 3 4 4 4 4 4 6 6 5 5 5
4 4 5 4 3 3 3 3 3 3 3 2 1 2 5 2 2 2 2 1 2 2 1 1 1 1 1 1 2 2 3 3 3 3 4 4 4 4 4 5 5 5 5
4 4 4 4 3 3 3 3 3 3 3 3 1 0 2 2 2 2 2 2 2 2 2 2 2 2 2 3 3 3 3 4 4 4 4 4 4 4 4 5 5 5 5
4 5 4 4 3 4 4 3 2 2 2 2 2 1 1 1 2 2 2 2 2 2 2 2 3 3 3 3 3 4 4 5 4 4 4 4 4 4 4 5 6 6 6
4 4 4 3 3 3 2 2 2 2 2 2 1 2 2 2 2 3 3 3 3 3 3 3 4 5 6 4 4 4 5 5 5 4 6 5 5 4 4 5 6 6 6
4 3 3 2 2 2 1 1 1 1 1 2 2 2 3 3 3 3 3 3 4 4 5 4 4 5 7 8 6 6 8 9 7 5 5 5 6 6 5 6 5 5 6
3 2 2 1 1 1 1 1 2 2 2 3 3 3 3 4 4 4 4 4 4 4 5 4 6 7 7 7 8 9 10 11 11 10 7 5 6 6 6 5 6 6 6
Wind_Direction
178 176 173 173 170 167 170 169 163 158 157 158 155 152 151 149 145 139 139 142 137 134 136 136 136 135 132 129 125 128 131 141 195 260 271 287 295 288 306 300 297 297 309
178 175 175 172 170 173 173 169 164 163 162 160 156 155 155 155 153 151 151 152 150 150 150 147 148 147 143 147 149 156 161 167 183 245 275 277 269 276 286 294 305 307 305
176 176 176 177 178 179 175 169 168 165 162 160 160 161 161 161 159 158 156 157 158 158 159 160 161 159 162 165 170 172 175 185 188 224 265 266 273 277 295 293 292 284 300
179 182 184 184 183 180 174 172 172 169 167 168 166 163 161 161 161 160 159 158 158 160 163 165 168 173 174 174 181 184 184 193 201 229 256 268 270 273 289 311 317 311 312
185 189 190 183 179 175 173 173 172 172 171 167 162 160 160 164 168 166 164 164 165 165 168 175 178 180 189 186 187 186 188 195 203 227 252 267 272 287 300 307 310 315 308
191 193 183 177 177 177 175 173 172 172 168 165 169 168 170 177 180 177 169 169 172 175 180 183 183 186 201 209 213 209 202 198 202 213 236 255 270 270 282 295 307 318 315
192 187 181 178 179 178 174 173 177 175 170 171 172 173 178 184 183 183 180 171 178 185 185 183 189 195 197 210 226 231 231 233 226 213 233 247 260 257 276 290 289 288 288
190 188 181 178 178 175 175 179 178 174 175 176 175 176 177 187 187 186 183 177 183 189 192 191 193 195 200 201 210 227 235 239 242 242 241 248 245 247 249 270 287 292 287
190 188 181 177 175 175 180 181 175 171 172 175 174 174 177 187 191 189 183 176 193 201 200 199 203 205 215 214 210 223 238 246 252 250 250 255 261 267 270 274 285 302 298
189 181 171 172 175 179 178 170 163 166 167 165 170 174 179 184 194 194 189 183 199 206 207 212 213 216 223 223 216 215 236 243 231 245 256 263 266 269 272 263 242 252 273
155 152 159 165 166 163 156 151 151 151 152 157 161 167 179 188 203 203 200 195 205 209 214 218 220 226 230 232 229 223 237 243 224 226 235 241 243 243 245 239 232 237 247
139 146 152 152 150 149 150 152 154 156 161 166 170 179 190 194 206 215 216 214 211 214 222 220 220 229 235 238 238 240 247 249 226 219 231 238 238 238 235 233 238 243 248
136 144 147 149 152 156 160 162 163 169 175 181 188 200 203 199 213 219 224 227 226 222 225 228 230 236 240 244 247 249 248 234 226 233 240 241 231 229 226 234 240 248 259
140 145 149 155 159 163 166 170 175 179 185 189 197 205 204 197 202 209 216 227 233 236 234 232 239 243 243 237 240 250 237 223 226 239 247 238 211 210 221 219 227 240 263
133 137 144 152 158 164 166 178 183 188 194 193 199 199 200 209 213 207 202 210 212 221 213 205 208 220 231 233 232 230 226 225 233 237 240 234 227 230 233 222 222 219 234
128 135 141 143 145 150 150 140 187 178 197 210 205 198 208 217 216 214 217 220 221 221 214 218 223 223 228 230 232 233 226 229 232 235 234 232 234 237 242 230 224 225 246
127 133 132 136 143 149 155 160 157 159 176 189 201 204 204 206 211 215 220 221 220 216 217 217 220 221 225 227 232 237 239 233 230 232 234 233 235 238 239 238 235 237 247
101 113 123 134 142 148 154 158 160 162 161 149 335 183 195 197 200 207 208 197 209 213 215 215 216 215 219 226 232 240 247 241 234 237 237 235 232 234 238 240 238 237 248
87 93 97 103 109 119 125 130 137 148 152 148 87 47 34 140 126 113 121 154 182 194 204 209 211 215 221 226 233 238 241 242 244 241 237 233 229 231 240 241 242 242 242
73 86 94 98 100 105 113 126 136 144 151 155 161 174 55 79 102 73 70 114 140 161 170 188 198 210 221 228 237 237 241 244 246 244 243 238 231 232 242 244 241 241 241
76 78 84 88 91 103 111 123 132 140 150 153 163 200 169 146 155 152 153 158 169 185 194 204 216 228 231 229 230 237 243 246 245 245 244 239 231 233 238 243 245 243 247
78 78 77 84 87 89 94 101 111 122 137 143 138 314 151 128 146 165 185 202 207 207 203 204 221 226 220 219 223 229 238 243 243 243 246 246 240 238 237 239 242 246 243
81 85 81 77 82 92 90 90 105 122 136 148 158 161 149 173 190 208 223 230 232 234 229 221 231 241 239 233 225 221 228 235 234 231 236 241 239 236 232 238 240 242 244
75 84 90 90 88 94 104 111 120 137 153 170 190 206 217 223 228 233 235 236 239 241 234 229 232 240 246 245 237 232 234 240 235 229 227 232 236 236 232 237 240 242 247
71 77 85 94 103 113 124 144 168 183 199 213 220 227 230 232 237 242 240 239 242 244 245 240 236 239 245 246 244 242 249 257 250 227 218 220 230 230 230 235 238 240 241
71 76 84 99 129 166 187 207 220 225 229 233 233 235 236 238 242 243 241 239 242 245 247 242 239 242 247 248 250 252 250 251 245 232 212 209 217 225 223 231 234 237 241